NOZ90L ENGM-LCLK

Flight info

Callsign NOZ90L
Flight time 4h 11m
Altitude 37000
Route OKSAT L996 LATKU L727 NEGIL DCT ETRUS DCT RUMAR DCT LENOV DCT KENIN DCT REBLA DCT EDETA DCT PELUR DCT BUKEL DCT ARGES DCT RIXEN UL620 GINLI/N0448F390 UL620 IST UG8 YAA UN617 IRGAK UM855 AYT UA16 TOMBI M855 DASNI M601 BONEK
Aircraft B38M/M-SDE1FGHILORVWXY/HB1

Departure

Time 2026-05-05 04:34
Airport Oslo-Gardermoen International Airport (ENGM)

Arrival

Time 2026-05-05 08:46
Airport Larnaca International Airport (LCLK)
Time Latitude Longitude Altitude Speed Heading
2026-05-05 03:33 60.19453 11.10359 685 ft 0 kts 196°
2026-05-05 04:19 60.19474 11.10372 679 ft 4 kts 196°
2026-05-05 04:19 60.19500 11.10387 680 ft 4 kts 196°
2026-05-05 04:19 60.19521 11.10399 685 ft 4 kts 210°
2026-05-05 04:20 60.19532 11.10432 679 ft 4 kts 277°
2026-05-05 04:20 60.19526 11.10482 683 ft 4 kts 286°
2026-05-05 04:20 60.19519 11.10534 681 ft 4 kts 286°
2026-05-05 04:20 60.19515 11.10564 685 ft 0 kts 286°
2026-05-05 04:25 60.19525 11.10496 683 ft 4 kts 287°
2026-05-05 04:25 60.19537 11.10432 680 ft 5 kts 302°
2026-05-05 04:25 60.19566 11.10399 684 ft 5 kts 352°
2026-05-05 04:25 60.19603 11.10411 687 ft 6 kts 16°
2026-05-05 04:26 60.19648 11.10438 683 ft 7 kts 16°
2026-05-05 04:26 60.19704 11.10470 687 ft 9 kts 16°
2026-05-05 04:26 60.19773 11.10510 680 ft 12 kts 16°
2026-05-05 04:26 60.19855 11.10558 685 ft 9 kts 16°
2026-05-05 04:27 60.19898 11.10512 684 ft 7 kts 297°
2026-05-05 04:27 60.19916 11.10401 683 ft 10 kts 286°
2026-05-05 04:27 60.19938 11.10250 687 ft 13 kts 286°
2026-05-05 04:27 60.19967 11.10048 686 ft 17 kts 285°
2026-05-05 04:28 60.20002 11.09804 683 ft 19 kts 286°
2026-05-05 04:28 60.20040 11.09532 679 ft 21 kts 286°
2026-05-05 04:28 60.20083 11.09233 683 ft 22 kts 286°
2026-05-05 04:28 60.20115 11.09010 680 ft 10 kts 285°
2026-05-05 04:29 60.20113 11.08883 683 ft 9 kts 231°
2026-05-05 04:29 60.20045 11.08828 683 ft 14 kts 196°
2026-05-05 04:29 60.19932 11.08762 682 ft 20 kts 197°
2026-05-05 04:29 60.19786 11.08679 681 ft 23 kts 196°
2026-05-05 04:30 60.19629 11.08587 681 ft 24 kts 196°
2026-05-05 04:30 60.19463 11.08492 679 ft 26 kts 196°
2026-05-05 04:30 60.19284 11.08388 677 ft 28 kts 196°
2026-05-05 04:30 60.19105 11.08285 674 ft 26 kts 196°
2026-05-05 04:31 60.18929 11.08183 675 ft 26 kts 196°
2026-05-05 04:31 60.18751 11.08081 671 ft 27 kts 196°
2026-05-05 04:31 60.18583 11.07984 672 ft 21 kts 196°
2026-05-05 04:31 60.18448 11.07906 671 ft 18 kts 196°
2026-05-05 04:32 60.18366 11.07858 671 ft 7 kts 199°
2026-05-05 04:32 60.18347 11.07762 669 ft 10 kts 289°
2026-05-05 04:32 60.18400 11.07629 666 ft 14 kts 324°
2026-05-05 04:32 60.18481 11.07511 667 ft 14 kts 323°
2026-05-05 04:33 60.18569 11.07419 668 ft 15 kts 359°
2026-05-05 04:33 60.18612 11.07439 668 ft 0 kts 16°
2026-05-05 04:33 60.18647 11.07460 669 ft 28 kts 16°
2026-05-05 04:33 60.19086 11.07714 672 ft 102 kts 16°
2026-05-05 04:34 60.19978 11.08229 678 ft 162 kts 16°
2026-05-05 04:34 60.21182 11.08927 1050 ft 184 kts 15°
2026-05-05 04:34 60.22411 11.09617 2077 ft 182 kts 12°
2026-05-05 04:34 60.23626 11.10300 2985 ft 191 kts 13°
2026-05-05 04:35 60.24980 11.11038 3680 ft 206 kts 12°
2026-05-05 04:35 60.26411 11.11356 4612 ft 211 kts 355°
2026-05-05 04:35 60.27896 11.10994 5486 ft 220 kts 351°
2026-05-05 04:35 60.29422 11.10558 6440 ft 224 kts 355°
2026-05-05 04:36 60.30964 11.11114 7215 ft 234 kts 26°
2026-05-05 04:36 60.32245 11.13276 7924 ft 252 kts 51°
2026-05-05 04:36 60.33016 11.16603 8509 ft 274 kts 76°
2026-05-05 04:36 60.33068 11.20533 9209 ft 287 kts 103°
2026-05-05 04:37 60.32192 11.24115 10096 ft 290 kts 132°
2026-05-05 04:37 60.30540 11.26565 10626 ft 303 kts 161°
2026-05-05 04:37 60.28465 11.27745 11117 ft 318 kts 165°
2026-05-05 04:37 60.26357 11.29345 11697 ft 330 kts 163°
2026-05-05 04:38 60.24198 11.30989 12285 ft 341 kts 165°
2026-05-05 04:38 60.21957 11.32671 13030 ft 347 kts 166°
2026-05-05 04:38 60.19662 11.34364 13771 ft 353 kts 167°
2026-05-05 04:38 60.17342 11.36063 14435 ft 357 kts 167°
2026-05-05 04:39 60.14990 11.37777 15128 ft 361 kts 168°
2026-05-05 04:39 60.12613 11.39505 15784 ft 364 kts 170°
2026-05-05 04:39 60.10253 11.41218 16503 ft 366 kts 171°
2026-05-05 04:39 60.07844 11.42956 17171 ft 369 kts 172°
2026-05-05 04:40 60.05407 11.44715 17868 ft 372 kts 172°
2026-05-05 04:40 60.02957 11.46483 18471 ft 375 kts 173°
2026-05-05 04:40 60.00497 11.48256 19040 ft 378 kts 173°
2026-05-05 04:40 59.98013 11.50042 19593 ft 380 kts 173°
2026-05-05 04:41 59.95512 11.51836 20081 ft 383 kts 172°
2026-05-05 04:41 59.93025 11.53615 20603 ft 386 kts 172°
2026-05-05 04:41 59.90486 11.55429 21125 ft 388 kts 172°
2026-05-05 04:41 59.87930 11.57252 21626 ft 392 kts 172°
2026-05-05 04:42 59.85350 11.59089 22149 ft 394 kts 172°
2026-05-05 04:42 59.82755 11.60933 22674 ft 398 kts 172°
2026-05-05 04:42 59.80133 11.62794 23159 ft 401 kts 172°
2026-05-05 04:42 59.77538 11.64631 23604 ft 404 kts 172°
2026-05-05 04:43 59.74886 11.66509 24011 ft 406 kts 172°
2026-05-05 04:43 59.72215 11.68394 24431 ft 408 kts 172°
2026-05-05 04:43 59.69528 11.70286 24832 ft 411 kts 172°
2026-05-05 04:43 59.66832 11.72182 25235 ft 413 kts 172°
2026-05-05 04:44 59.64107 11.74095 25550 ft 415 kts 171°
2026-05-05 04:44 59.61376 11.76010 25972 ft 416 kts 171°
2026-05-05 04:44 59.58630 11.77928 26356 ft 418 kts 171°
2026-05-05 04:44 59.55912 11.79826 26701 ft 420 kts 171°
2026-05-05 04:45 59.53153 11.81748 27125 ft 421 kts 171°
2026-05-05 04:45 59.50381 11.83676 27479 ft 424 kts 171°
2026-05-05 04:45 59.47590 11.85613 27833 ft 426 kts 171°
2026-05-05 04:45 59.44786 11.87556 28186 ft 428 kts 171°
2026-05-05 04:46 59.41966 11.89507 28520 ft 430 kts 171°
2026-05-05 04:46 59.39167 11.91439 28875 ft 432 kts 171°
2026-05-05 04:46 59.36325 11.93397 29204 ft 434 kts 171°
2026-05-05 04:46 59.33449 11.95046 29431 ft 422 kts 182°
2026-05-05 04:47 59.30582 11.95200 29633 ft 412 kts 192°
2026-05-05 04:47 59.27674 11.95005 29831 ft 417 kts 191°
2026-05-05 04:47 59.24768 11.94768 30101 ft 419 kts 192°
2026-05-05 04:47 59.21853 11.94494 30353 ft 420 kts 192°
2026-05-05 04:48 59.18954 11.94198 30616 ft 422 kts 192°
2026-05-05 04:48 59.16018 11.93888 30883 ft 423 kts 192°
2026-05-05 04:48 59.13067 11.93572 31130 ft 425 kts 192°
2026-05-05 04:48 59.10105 11.93254 31387 ft 427 kts 192°
2026-05-05 04:49 59.07132 11.92935 31628 ft 429 kts 192°
2026-05-05 04:49 59.04160 11.92616 31837 ft 429 kts 191°
2026-05-05 04:49 59.01170 11.92294 32101 ft 431 kts 191°
2026-05-05 04:49 58.98203 11.91974 32412 ft 430 kts 191°
2026-05-05 04:50 58.95209 11.91652 32779 ft 429 kts 191°
2026-05-05 04:50 58.92218 11.91330 33116 ft 429 kts 191°
2026-05-05 04:50 58.89235 11.91010 33460 ft 428 kts 191°
2026-05-05 04:50 58.86296 11.90696 33785 ft 427 kts 191°
2026-05-05 04:51 58.83331 11.90379 34065 ft 426 kts 191°
2026-05-05 04:51 58.80362 11.90336 34286 ft 436 kts 181°
2026-05-05 04:51 58.77340 11.91198 34522 ft 438 kts 180°
2026-05-05 04:51 58.74303 11.92004 34655 ft 440 kts 180°
2026-05-05 04:52 58.71271 11.92820 34844 ft 441 kts 180°
2026-05-05 04:52 58.65180 11.94471 34874 ft 440 kts 180°
2026-05-05 04:53 58.59171 11.96190 34879 ft 445 kts 174°
2026-05-05 04:53 58.56239 11.98299 34880 ft 459 kts 158°
2026-05-05 04:53 58.53617 12.01942 34892 ft 475 kts 142°
2026-05-05 04:54 58.49108 12.11407 34878 ft 482 kts 138°
2026-05-05 04:54 58.44667 12.20924 34834 ft 482 kts 138°
2026-05-05 04:55 58.40198 12.30508 34863 ft 481 kts 138°
2026-05-05 04:55 58.35772 12.39966 34885 ft 481 kts 138°
2026-05-05 04:56 58.31299 12.49482 34865 ft 480 kts 139°
2026-05-05 04:56 58.26869 12.58874 34885 ft 478 kts 139°
2026-05-05 04:56 58.24472 12.63116 34864 ft 463 kts 154°
2026-05-05 04:57 58.21761 12.66346 34894 ft 461 kts 155°
2026-05-05 04:57 58.16330 12.72894 34891 ft 462 kts 155°
2026-05-05 04:58 58.10900 12.79291 34881 ft 461 kts 156°
2026-05-05 04:58 58.05444 12.85674 34881 ft 461 kts 156°
2026-05-05 04:59 58.00018 12.91997 34878 ft 461 kts 156°
2026-05-05 04:59 57.94552 12.98344 34880 ft 460 kts 156°
2026-05-05 05:00 57.89100 13.04652 34887 ft 459 kts 156°
2026-05-05 05:00 57.83640 13.10947 34884 ft 459 kts 156°
2026-05-05 05:01 57.78222 13.17172 34858 ft 459 kts 156°
2026-05-05 05:01 57.72788 13.23391 34879 ft 459 kts 156°
2026-05-05 05:02 57.68256 13.28561 34885 ft 458 kts 156°
2026-05-05 05:02 57.62790 13.34777 34888 ft 458 kts 156°
2026-05-05 05:03 57.57373 13.40915 34879 ft 459 kts 156°
2026-05-05 05:03 57.51915 13.47077 34886 ft 458 kts 156°
2026-05-05 05:04 57.46438 13.53240 34845 ft 458 kts 155°
2026-05-05 05:04 57.41006 13.59330 34892 ft 459 kts 155°
2026-05-05 05:05 57.35551 13.65424 34894 ft 458 kts 155°
2026-05-05 05:05 57.30084 13.71511 34889 ft 458 kts 155°
2026-05-05 05:06 57.24618 13.77575 34894 ft 458 kts 156°
2026-05-05 05:06 57.19181 13.83586 34893 ft 458 kts 155°
2026-05-05 05:07 57.13721 13.89603 34876 ft 457 kts 155°
2026-05-05 05:07 57.08242 13.95616 34899 ft 457 kts 155°
2026-05-05 05:08 57.02805 14.01565 34903 ft 456 kts 155°
2026-05-05 05:08 56.97334 14.07530 34896 ft 456 kts 155°
2026-05-05 05:09 56.91917 14.13416 34902 ft 456 kts 155°
2026-05-05 05:09 56.86431 14.19356 34897 ft 456 kts 155°
2026-05-05 05:10 56.81006 14.25212 34886 ft 455 kts 155°
2026-05-05 05:10 56.75547 14.31082 34903 ft 454 kts 155°
2026-05-05 05:11 56.70138 14.36880 34909 ft 454 kts 155°
2026-05-05 05:11 56.64684 14.42705 34913 ft 454 kts 155°
2026-05-05 05:12 56.59222 14.48520 34920 ft 454 kts 155°
2026-05-05 05:12 56.53768 14.54306 34915 ft 454 kts 155°
2026-05-05 05:13 56.48371 14.60013 34904 ft 452 kts 155°
2026-05-05 05:13 56.42938 14.65739 34913 ft 451 kts 155°
2026-05-05 05:14 56.37504 14.71447 34922 ft 451 kts 155°
2026-05-05 05:14 56.32071 14.77135 34924 ft 451 kts 155°
2026-05-05 05:15 56.26678 14.82763 34925 ft 451 kts 155°
2026-05-05 05:15 56.21221 14.88438 34902 ft 451 kts 155°
2026-05-05 05:16 56.15803 14.94053 34928 ft 452 kts 155°
2026-05-05 05:16 56.10341 14.99696 34914 ft 452 kts 155°
2026-05-05 05:17 56.04910 15.05289 34922 ft 452 kts 156°
2026-05-05 05:17 55.99483 15.10859 34926 ft 452 kts 156°
2026-05-05 05:18 55.94020 15.16448 34920 ft 452 kts 156°
2026-05-05 05:18 55.88561 15.22014 34912 ft 452 kts 156°
2026-05-05 05:19 55.83138 15.27526 34928 ft 451 kts 156°
2026-05-05 05:19 55.77668 15.33067 34927 ft 451 kts 156°
2026-05-05 05:20 55.72217 15.38572 34928 ft 450 kts 156°
2026-05-05 05:20 55.66792 15.44037 34927 ft 450 kts 156°
2026-05-05 05:21 55.61347 15.49504 34928 ft 450 kts 156°
2026-05-05 05:21 55.55889 15.54965 34915 ft 449 kts 157°
2026-05-05 05:22 55.50458 15.60384 34932 ft 448 kts 157°
2026-05-05 05:22 55.45042 15.65792 34931 ft 448 kts 156°
2026-05-05 05:23 55.39648 15.71188 34918 ft 448 kts 157°
2026-05-05 05:23 55.34213 15.76613 34931 ft 449 kts 157°
2026-05-05 05:24 55.28795 15.82004 34930 ft 449 kts 157°
2026-05-05 05:24 55.23346 15.87408 34924 ft 449 kts 157°
2026-05-05 05:25 55.17933 15.92760 34931 ft 450 kts 157°
2026-05-05 05:25 55.12464 15.98150 34934 ft 449 kts 157°
2026-05-05 05:26 55.07014 16.03504 34935 ft 449 kts 157°
2026-05-05 05:26 55.01602 16.08884 34935 ft 450 kts 156°
2026-05-05 05:27 54.96184 16.14329 34936 ft 450 kts 156°
2026-05-05 05:27 54.88061 16.22450 34936 ft 450 kts 156°
2026-05-05 05:28 54.82629 16.27859 34936 ft 450 kts 156°
2026-05-05 05:28 54.77183 16.33264 34936 ft 450 kts 156°
2026-05-05 05:29 54.71790 16.38602 34938 ft 450 kts 157°
2026-05-05 05:29 54.66349 16.43968 34904 ft 450 kts 157°
2026-05-05 05:30 54.60902 16.49325 34936 ft 449 kts 157°
2026-05-05 05:30 54.55492 16.54629 34942 ft 449 kts 157°
2026-05-05 05:31 54.50058 16.59940 34947 ft 449 kts 157°
2026-05-05 05:31 54.44613 16.65245 34945 ft 449 kts 157°
2026-05-05 05:32 54.39201 16.70502 34944 ft 449 kts 157°
2026-05-05 05:32 54.33752 16.75780 34911 ft 448 kts 157°
2026-05-05 05:33 54.28321 16.81021 34942 ft 448 kts 157°
2026-05-05 05:33 54.22919 16.86221 34947 ft 448 kts 157°
2026-05-05 05:34 54.17476 16.91443 34944 ft 448 kts 157°
2026-05-05 05:34 54.12033 16.96651 34948 ft 448 kts 157°
2026-05-05 05:35 54.06641 17.01793 34949 ft 448 kts 157°
2026-05-05 05:35 54.01196 17.06971 34946 ft 447 kts 157°
2026-05-05 05:36 53.95758 17.12125 34948 ft 448 kts 157°
2026-05-05 05:36 53.90338 17.17248 34945 ft 448 kts 157°
2026-05-05 05:37 53.84897 17.22376 34954 ft 448 kts 157°
2026-05-05 05:37 53.79466 17.27477 34950 ft 448 kts 157°
2026-05-05 05:38 53.73995 17.32602 34926 ft 447 kts 157°
2026-05-05 05:38 53.68546 17.37691 34946 ft 446 kts 157°
2026-05-05 05:39 53.63150 17.42715 34942 ft 447 kts 156°
2026-05-05 05:39 53.57681 17.47792 34955 ft 448 kts 156°
2026-05-05 05:40 53.52225 17.52842 34953 ft 448 kts 157°
2026-05-05 05:40 53.46791 17.57857 34952 ft 447 kts 157°
2026-05-05 05:41 53.41337 17.62876 34946 ft 446 kts 156°
2026-05-05 05:41 53.35889 17.67873 34949 ft 446 kts 156°
2026-05-05 05:42 53.30435 17.72862 34988 ft 447 kts 156°
2026-05-05 05:42 53.27723 17.75338 35208 ft 448 kts 156°
2026-05-05 05:42 53.24981 17.77836 35444 ft 449 kts 156°
2026-05-05 05:43 53.22249 17.80323 35713 ft 448 kts 156°
2026-05-05 05:43 53.19502 17.82819 35965 ft 448 kts 156°
2026-05-05 05:43 53.16758 17.85309 36216 ft 448 kts 156°
2026-05-05 05:43 53.14020 17.87790 36440 ft 447 kts 156°
2026-05-05 05:44 53.11292 17.90258 36701 ft 446 kts 156°
2026-05-05 05:44 53.08561 17.92725 36930 ft 445 kts 156°
2026-05-05 05:44 53.03133 17.97618 36927 ft 445 kts 156°
2026-05-05 05:45 52.97693 18.02507 36931 ft 445 kts 156°
2026-05-05 05:45 52.92265 18.07372 36938 ft 445 kts 156°
2026-05-05 05:46 52.86807 18.12250 36935 ft 445 kts 156°
2026-05-05 05:46 52.81352 18.17111 36932 ft 444 kts 156°
2026-05-05 05:47 52.75945 18.21915 36934 ft 444 kts 156°
2026-05-05 05:47 52.70516 18.26726 36930 ft 444 kts 156°
2026-05-05 05:48 52.65067 18.31540 36930 ft 444 kts 156°
2026-05-05 05:48 52.60529 18.35539 36921 ft 446 kts 156°
2026-05-05 05:49 52.55048 18.40356 36914 ft 447 kts 156°
2026-05-05 05:49 52.49562 18.45164 36934 ft 446 kts 156°
2026-05-05 05:50 52.44106 18.49932 36931 ft 446 kts 156°
2026-05-05 05:50 52.38622 18.54711 36931 ft 446 kts 156°
2026-05-05 05:51 52.33173 18.59446 36926 ft 446 kts 156°
2026-05-05 05:51 52.27678 18.64208 36918 ft 446 kts 156°
2026-05-05 05:52 52.22180 18.68959 36913 ft 446 kts 156°
2026-05-05 05:52 52.16723 18.73661 36919 ft 446 kts 156°
2026-05-05 05:53 52.11233 18.78378 36919 ft 446 kts 156°
2026-05-05 05:53 52.05744 18.83081 36920 ft 446 kts 156°
2026-05-05 05:54 52.00269 18.87759 36916 ft 446 kts 156°
2026-05-05 05:54 51.94765 18.92450 36906 ft 447 kts 156°
2026-05-05 05:55 51.89260 18.97127 36913 ft 448 kts 156°
2026-05-05 05:55 51.83771 19.01778 36911 ft 447 kts 156°
2026-05-05 05:56 51.78222 19.06466 36913 ft 447 kts 156°
2026-05-05 05:56 51.72723 19.11101 36912 ft 447 kts 156°
2026-05-05 05:57 51.67205 19.15737 36902 ft 447 kts 156°
2026-05-05 05:57 51.61708 19.20344 36911 ft 447 kts 156°
2026-05-05 05:58 51.56168 19.24973 36911 ft 447 kts 156°
2026-05-05 05:58 51.50673 19.29552 36913 ft 447 kts 156°
2026-05-05 05:59 51.45146 19.34146 36911 ft 447 kts 156°
2026-05-05 05:59 51.39649 19.38702 36911 ft 447 kts 156°
2026-05-05 06:00 51.34112 19.43278 36912 ft 447 kts 156°
2026-05-05 06:00 51.28580 19.47839 36912 ft 446 kts 156°
2026-05-05 06:01 51.23089 19.52352 36914 ft 447 kts 156°
2026-05-05 06:01 51.17551 19.56892 36917 ft 447 kts 156°
2026-05-05 06:02 51.12046 19.61394 36917 ft 447 kts 156°
2026-05-05 06:02 51.06498 19.65918 36914 ft 447 kts 156°
2026-05-05 06:03 51.00998 19.70390 36915 ft 447 kts 156°
2026-05-05 06:03 50.95446 19.74893 36914 ft 448 kts 156°
2026-05-05 06:04 50.89887 19.79389 36919 ft 448 kts 156°
2026-05-05 06:04 50.84364 19.83845 36923 ft 448 kts 156°
2026-05-05 06:05 50.78803 19.88319 36921 ft 448 kts 156°
2026-05-05 06:05 50.73236 19.92785 36922 ft 448 kts 156°
2026-05-05 06:06 50.67710 19.97207 36930 ft 448 kts 156°
2026-05-05 06:06 50.62164 20.01633 36934 ft 449 kts 155°
2026-05-05 06:07 50.56589 20.06070 36930 ft 450 kts 156°
2026-05-05 06:07 50.50988 20.10517 36934 ft 449 kts 156°
2026-05-05 06:08 50.45421 20.14924 36935 ft 449 kts 156°
2026-05-05 06:08 50.39823 20.19344 36941 ft 449 kts 156°
2026-05-05 06:09 50.34238 20.23742 36934 ft 449 kts 155°
2026-05-05 06:09 50.28667 20.28118 36941 ft 451 kts 155°
2026-05-05 06:10 50.23037 20.32528 36946 ft 451 kts 155°
2026-05-05 06:10 50.17452 20.36892 36948 ft 451 kts 155°
2026-05-05 06:11 50.11848 20.41258 36947 ft 451 kts 155°
2026-05-05 06:11 50.06226 20.45628 36958 ft 451 kts 155°
2026-05-05 06:12 50.00632 20.49965 36955 ft 451 kts 155°
2026-05-05 06:12 49.94994 20.54323 36956 ft 452 kts 155°
2026-05-05 06:13 49.89400 20.58637 36961 ft 452 kts 155°
2026-05-05 06:13 49.83758 20.62978 36966 ft 452 kts 155°
2026-05-05 06:14 49.78154 20.67279 36969 ft 452 kts 155°
2026-05-05 06:14 49.72515 20.71596 36979 ft 452 kts 155°
2026-05-05 06:15 49.66885 20.75895 36967 ft 452 kts 155°
2026-05-05 06:15 49.61258 20.80181 36982 ft 453 kts 155°
2026-05-05 06:16 49.55595 20.84483 36978 ft 452 kts 155°
2026-05-05 06:16 49.49939 20.88768 36983 ft 452 kts 155°
2026-05-05 06:17 49.44338 20.93001 36995 ft 452 kts 155°
2026-05-05 06:17 49.38676 20.97270 37004 ft 453 kts 155°
2026-05-05 06:18 49.33036 21.01681 36980 ft 455 kts 149°
2026-05-05 06:18 49.27678 21.06768 37007 ft 455 kts 149°
2026-05-05 06:19 49.22317 21.11901 37018 ft 456 kts 149°
2026-05-05 06:19 49.16939 21.17042 37018 ft 454 kts 149°
2026-05-05 06:20 49.11597 21.22138 37021 ft 455 kts 149°
2026-05-05 06:20 49.06219 21.27256 37031 ft 454 kts 148°
2026-05-05 06:21 49.00858 21.32342 37031 ft 454 kts 148°
2026-05-05 06:21 48.95522 21.37393 37034 ft 455 kts 149°
2026-05-05 06:22 48.90134 21.42480 37041 ft 454 kts 149°
2026-05-05 06:22 48.84751 21.47549 37043 ft 455 kts 149°
2026-05-05 06:23 48.79387 21.52588 37046 ft 455 kts 148°
2026-05-05 06:23 48.74031 21.57606 37041 ft 455 kts 148°
2026-05-05 06:24 48.68644 21.62641 37049 ft 455 kts 148°
2026-05-05 06:24 48.63253 21.67666 37051 ft 455 kts 149°
2026-05-05 06:25 48.57869 21.72671 37056 ft 455 kts 149°
2026-05-05 06:25 48.52472 21.77677 37054 ft 455 kts 149°
2026-05-05 06:26 48.47091 21.82655 37061 ft 455 kts 149°
2026-05-05 06:26 48.41695 21.87636 37062 ft 455 kts 149°
2026-05-05 06:27 48.33792 21.95558 37070 ft 455 kts 142°
2026-05-05 06:28 48.28829 22.01374 37055 ft 456 kts 142°
2026-05-05 06:28 48.23829 22.07246 37054 ft 456 kts 142°
2026-05-05 06:29 48.18833 22.13099 37055 ft 456 kts 142°
2026-05-05 06:29 48.13829 22.18949 37056 ft 456 kts 142°
2026-05-05 06:30 48.08817 22.24792 37055 ft 456 kts 142°
2026-05-05 06:30 48.03838 22.30584 37061 ft 457 kts 142°
2026-05-05 06:31 47.98827 22.36397 37056 ft 457 kts 142°
2026-05-05 06:31 47.93806 22.42207 37053 ft 457 kts 142°
2026-05-05 06:32 47.88769 22.48020 37058 ft 457 kts 142°
2026-05-05 06:32 47.83764 22.53784 37060 ft 457 kts 142°
2026-05-05 06:33 47.78724 22.59571 37063 ft 457 kts 142°
2026-05-05 06:33 47.73683 22.65346 37069 ft 457 kts 142°
2026-05-05 06:34 47.68667 22.71077 37073 ft 457 kts 142°
2026-05-05 06:34 47.63622 22.76828 37074 ft 458 kts 142°
2026-05-05 06:35 47.58576 22.82565 37074 ft 457 kts 142°
2026-05-05 06:35 47.53547 22.88269 37070 ft 457 kts 142°
2026-05-05 06:36 47.48495 22.93984 37068 ft 457 kts 142°
2026-05-05 06:36 47.43444 22.99685 37063 ft 457 kts 142°
2026-05-05 06:37 47.38399 23.05363 37078 ft 457 kts 141°
2026-05-05 06:37 47.33335 23.11050 37068 ft 458 kts 141°
2026-05-05 06:38 47.28285 23.16708 37069 ft 458 kts 142°
2026-05-05 06:38 47.23204 23.22385 37071 ft 458 kts 142°
2026-05-05 06:39 47.18134 23.28037 37073 ft 458 kts 142°
2026-05-05 06:39 47.13050 23.33690 37073 ft 459 kts 141°
2026-05-05 06:40 47.07951 23.39346 37067 ft 459 kts 141°
2026-05-05 06:40 47.02846 23.44994 37074 ft 460 kts 142°
2026-05-05 06:41 46.97774 23.50593 37076 ft 460 kts 142°
2026-05-05 06:41 46.92657 23.56228 37081 ft 460 kts 141°
2026-05-05 06:42 46.87534 23.61856 37079 ft 460 kts 141°
2026-05-05 06:42 46.83276 23.66525 37065 ft 460 kts 141°
2026-05-05 06:43 46.77328 23.73033 37071 ft 460 kts 141°
2026-05-05 06:43 46.72418 23.79020 37081 ft 460 kts 138°
2026-05-05 06:44 46.68346 23.84014 37075 ft 459 kts 138°
2026-05-05 06:44 46.63453 23.89979 37104 ft 459 kts 138°
2026-05-05 06:45 46.58555 23.95932 37097 ft 459 kts 138°
2026-05-05 06:45 46.53643 24.01889 37095 ft 459 kts 138°
2026-05-05 06:46 46.48761 24.07796 37111 ft 459 kts 138°
2026-05-05 06:46 46.43846 24.13726 37099 ft 459 kts 139°
2026-05-05 06:47 46.38937 24.19636 37091 ft 460 kts 139°
2026-05-05 06:47 46.34012 24.25550 37083 ft 460 kts 139°
2026-05-05 06:48 46.29116 24.31416 37086 ft 459 kts 139°
2026-05-05 06:48 46.24181 24.37315 37092 ft 460 kts 139°
2026-05-05 06:49 46.19262 24.43179 37089 ft 460 kts 139°
2026-05-05 06:49 46.14356 24.49014 37086 ft 460 kts 139°
2026-05-05 06:50 46.09407 24.54886 37102 ft 460 kts 139°
2026-05-05 06:50 46.04471 24.60730 37085 ft 459 kts 139°
2026-05-05 06:51 45.99567 24.66521 37085 ft 459 kts 139°
2026-05-05 06:51 45.94618 24.72352 37088 ft 459 kts 139°
2026-05-05 06:52 45.89666 24.78171 37087 ft 459 kts 139°
2026-05-05 06:52 45.84730 24.83961 37091 ft 460 kts 139°
2026-05-05 06:53 45.79787 24.89746 37086 ft 459 kts 139°
2026-05-05 06:53 45.74835 24.95527 37086 ft 460 kts 139°
2026-05-05 06:54 45.69909 25.01270 37091 ft 460 kts 139°
2026-05-05 06:54 45.64941 25.07049 37093 ft 460 kts 139°
2026-05-05 06:55 45.59989 25.12795 37085 ft 460 kts 139°
2026-05-05 06:55 45.55021 25.18546 37095 ft 460 kts 140°
2026-05-05 06:56 45.50063 25.24272 37075 ft 460 kts 140°
2026-05-05 06:56 45.45086 25.30008 37093 ft 461 kts 140°
2026-05-05 06:57 45.40109 25.35729 37079 ft 461 kts 140°
2026-05-05 06:57 45.35126 25.41445 37072 ft 460 kts 140°
2026-05-05 06:58 45.30136 25.47157 37070 ft 461 kts 140°
2026-05-05 06:58 45.25174 25.52820 37088 ft 462 kts 140°
2026-05-05 06:59 45.20156 25.58534 37069 ft 462 kts 140°
2026-05-05 06:59 45.15139 25.64235 37073 ft 462 kts 140°
2026-05-05 07:00 45.10147 25.69895 37066 ft 462 kts 140°
2026-05-05 07:00 45.05140 25.75558 37075 ft 462 kts 140°
2026-05-05 07:01 45.00113 25.81229 37068 ft 462 kts 140°
2026-05-05 07:01 44.95077 25.86898 37072 ft 463 kts 140°
2026-05-05 07:02 44.90070 25.92522 37072 ft 463 kts 140°
2026-05-05 07:02 44.85035 25.98164 37087 ft 463 kts 140°
2026-05-05 07:03 44.79988 26.03807 37074 ft 462 kts 140°
2026-05-05 07:03 44.74947 26.09430 37074 ft 463 kts 140°
2026-05-05 07:04 44.69899 26.15046 37067 ft 463 kts 140°
2026-05-05 07:04 44.64874 26.20626 37087 ft 464 kts 140°
2026-05-05 07:05 44.59812 26.26234 37076 ft 463 kts 140°
2026-05-05 07:05 44.54744 26.31836 37078 ft 463 kts 140°
2026-05-05 07:06 44.49713 26.37384 37076 ft 463 kts 140°
2026-05-05 07:06 44.44654 26.42950 37085 ft 463 kts 140°
2026-05-05 07:07 44.39588 26.48511 37074 ft 463 kts 140°
2026-05-05 07:07 44.34541 26.54039 37075 ft 463 kts 140°
2026-05-05 07:08 44.29461 26.59591 37075 ft 463 kts 140°
2026-05-05 07:08 44.24390 26.65121 37075 ft 463 kts 140°
2026-05-05 07:09 44.19308 26.70649 37073 ft 463 kts 140°
2026-05-05 07:09 44.14253 26.76139 37059 ft 463 kts 140°
2026-05-05 07:10 44.09154 26.81661 37074 ft 464 kts 141°
2026-05-05 07:10 44.03915 26.86927 37078 ft 465 kts 143°
2026-05-05 07:11 43.98712 26.92165 37071 ft 464 kts 142°
2026-05-05 07:11 43.93504 26.97403 37072 ft 464 kts 143°
2026-05-05 07:12 43.88255 27.02671 37071 ft 464 kts 143°
2026-05-05 07:12 43.83033 27.07898 37072 ft 465 kts 143°
2026-05-05 07:13 43.77816 27.13112 37071 ft 465 kts 143°
2026-05-05 07:13 43.72582 27.18330 37067 ft 465 kts 143°
2026-05-05 07:14 43.67309 27.23576 37076 ft 465 kts 143°
2026-05-05 07:14 43.62100 27.28746 37078 ft 465 kts 143°
2026-05-05 07:15 43.56835 27.33959 37061 ft 465 kts 143°
2026-05-05 07:15 43.51568 27.39166 37075 ft 466 kts 143°
2026-05-05 07:16 43.46330 27.44330 37073 ft 466 kts 143°
2026-05-05 07:16 43.41054 27.49522 37072 ft 465 kts 143°
2026-05-05 07:17 43.35813 27.54668 37075 ft 465 kts 143°
2026-05-05 07:17 43.30525 27.59848 37074 ft 465 kts 143°
2026-05-05 07:18 43.25294 27.64960 37075 ft 465 kts 143°
2026-05-05 07:18 43.20017 27.70108 37074 ft 465 kts 144°
2026-05-05 07:19 43.14742 27.75242 37077 ft 465 kts 144°
2026-05-05 07:19 43.09471 27.80361 37076 ft 465 kts 144°
2026-05-05 07:20 43.04240 27.85430 37079 ft 465 kts 144°
2026-05-05 07:20 42.98954 27.90542 37083 ft 466 kts 144°
2026-05-05 07:21 42.93652 27.95658 37087 ft 466 kts 144°
2026-05-05 07:21 42.88351 28.00762 37093 ft 466 kts 144°
2026-05-05 07:22 42.83066 28.05841 37099 ft 466 kts 144°
2026-05-05 07:22 42.77803 28.10887 37091 ft 465 kts 144°
2026-05-05 07:23 42.72499 28.15961 37089 ft 467 kts 144°
2026-05-05 07:23 42.67176 28.21044 37092 ft 467 kts 144°
2026-05-05 07:24 42.61868 28.26100 37096 ft 467 kts 144°
2026-05-05 07:24 42.56579 28.31128 37093 ft 466 kts 144°
2026-05-05 07:25 42.51254 28.36179 37084 ft 466 kts 144°
2026-05-05 07:25 42.45927 28.41222 37192 ft 468 kts 144°
2026-05-05 07:25 42.43261 28.43743 37440 ft 468 kts 144°
2026-05-05 07:26 42.40622 28.46234 37631 ft 469 kts 144°
2026-05-05 07:26 42.37942 28.48761 37846 ft 470 kts 144°
2026-05-05 07:26 42.35256 28.51292 38056 ft 470 kts 144°
2026-05-05 07:26 42.32566 28.53824 38258 ft 471 kts 144°
2026-05-05 07:27 42.29874 28.56355 38455 ft 471 kts 144°
2026-05-05 07:27 42.27185 28.58881 38647 ft 471 kts 144°
2026-05-05 07:27 42.24494 28.61407 38811 ft 472 kts 144°
2026-05-05 07:27 42.21807 28.63926 38947 ft 472 kts 144°
2026-05-05 07:28 42.19115 28.66448 39062 ft 471 kts 144°
2026-05-05 07:28 42.13750 28.71465 39077 ft 472 kts 145°
2026-05-05 07:29 42.08043 28.75816 39064 ft 468 kts 166°
2026-05-05 07:29 42.04880 28.76508 39095 ft 466 kts 178°
2026-05-05 07:29 42.01643 28.76739 39069 ft 469 kts 178°
2026-05-05 07:30 41.95118 28.77109 39080 ft 470 kts 179°
2026-05-05 07:30 41.85357 28.77511 39080 ft 470 kts 179°
2026-05-05 07:31 41.78829 28.77764 39076 ft 469 kts 180°
2026-05-05 07:31 41.72301 28.78019 39081 ft 470 kts 180°
2026-05-05 07:32 41.65772 28.78274 39079 ft 469 kts 179°
2026-05-05 07:32 41.59244 28.78528 39071 ft 468 kts 180°
2026-05-05 07:33 41.52775 28.78780 39080 ft 469 kts 180°
2026-05-05 07:33 41.46258 28.79034 39076 ft 469 kts 180°
2026-05-05 07:34 41.39731 28.79287 39067 ft 468 kts 180°
2026-05-05 07:34 41.33217 28.79541 39078 ft 468 kts 179°
2026-05-05 07:35 41.26764 28.79791 39075 ft 467 kts 179°
2026-05-05 07:35 41.20251 28.80058 39079 ft 468 kts 179°
2026-05-05 07:36 41.13741 28.80332 39080 ft 468 kts 179°
2026-05-05 07:36 41.07216 28.80605 39077 ft 468 kts 179°
2026-05-05 07:37 41.00753 28.80876 39070 ft 468 kts 179°
2026-05-05 07:37 40.97510 28.81292 39053 ft 469 kts 167°
2026-05-05 07:37 40.94463 28.82774 39069 ft 467 kts 151°
2026-05-05 07:38 40.88841 28.87150 39064 ft 470 kts 148°
2026-05-05 07:38 40.83252 28.91665 39075 ft 471 kts 148°
2026-05-05 07:39 40.77697 28.96204 39088 ft 471 kts 148°
2026-05-05 07:39 40.72160 29.00725 39078 ft 470 kts 148°
2026-05-05 07:40 40.66590 29.05265 39076 ft 470 kts 148°
2026-05-05 07:40 40.61018 29.09799 39081 ft 470 kts 148°
2026-05-05 07:41 40.55456 29.14313 39076 ft 470 kts 148°
2026-05-05 07:41 40.49916 29.18804 39078 ft 471 kts 148°
2026-05-05 07:42 40.44441 29.23550 39079 ft 471 kts 146°
2026-05-05 07:42 40.38995 29.28354 39085 ft 470 kts 146°
2026-05-05 07:43 40.33571 29.33115 39075 ft 468 kts 146°
2026-05-05 07:43 40.28187 29.37831 39075 ft 469 kts 146°
2026-05-05 07:44 40.22755 29.42580 39069 ft 469 kts 146°
2026-05-05 07:44 40.17331 29.47312 39077 ft 469 kts 146°
2026-05-05 07:45 40.11907 29.52036 39075 ft 469 kts 146°
2026-05-05 07:45 40.06510 29.56727 39080 ft 469 kts 146°
2026-05-05 07:46 40.01069 29.61446 39075 ft 470 kts 146°
2026-05-05 07:46 39.95612 29.66170 39071 ft 471 kts 146°
2026-05-05 07:47 39.90165 29.70877 39073 ft 471 kts 147°
2026-05-05 07:47 39.87283 29.72871 39068 ft 469 kts 158°
2026-05-05 07:47 39.84307 29.74507 39067 ft 471 kts 156°
2026-05-05 07:48 39.78304 29.77918 39080 ft 470 kts 157°
2026-05-05 07:48 39.72312 29.81296 39076 ft 470 kts 157°
2026-05-05 07:49 39.66300 29.84678 39068 ft 471 kts 157°
2026-05-05 07:49 39.60309 29.88041 39065 ft 471 kts 157°
2026-05-05 07:50 39.54280 29.91418 39057 ft 472 kts 157°
2026-05-05 07:50 39.48291 29.94805 39057 ft 472 kts 157°
2026-05-05 07:51 39.42259 29.98215 39058 ft 472 kts 157°
2026-05-05 07:51 39.36261 30.01598 39055 ft 472 kts 157°
2026-05-05 07:52 39.31244 30.04423 39051 ft 472 kts 157°
2026-05-05 07:52 39.25228 30.07805 39050 ft 472 kts 157°
2026-05-05 07:53 39.19223 30.11175 39049 ft 472 kts 157°
2026-05-05 07:53 39.13197 30.14549 39050 ft 473 kts 157°
2026-05-05 07:54 39.07142 30.17936 39038 ft 474 kts 157°
2026-05-05 07:54 39.01088 30.21331 39048 ft 476 kts 157°
2026-05-05 07:55 38.95011 30.24731 39045 ft 475 kts 157°
2026-05-05 07:55 38.88970 30.28105 39047 ft 476 kts 157°
2026-05-05 07:56 38.82919 30.31477 39038 ft 476 kts 158°
2026-05-05 07:56 38.76827 30.34867 39047 ft 477 kts 158°
2026-05-05 07:57 38.70765 30.38234 39047 ft 477 kts 158°
2026-05-05 07:57 38.64661 30.41618 39044 ft 478 kts 158°
2026-05-05 07:58 38.58542 30.45003 39039 ft 479 kts 158°
2026-05-05 07:58 38.52438 30.48374 39037 ft 479 kts 158°
2026-05-05 07:59 38.46311 30.51752 39035 ft 479 kts 158°
2026-05-05 07:59 38.40184 30.55123 39036 ft 480 kts 158°
2026-05-05 08:00 38.34096 30.58466 39030 ft 481 kts 158°
2026-05-05 08:00 38.27895 30.61578 39009 ft 477 kts 171°
2026-05-05 08:01 38.21332 30.62601 38998 ft 476 kts 176°
2026-05-05 08:01 38.14748 30.63523 39018 ft 476 kts 176°
2026-05-05 08:02 38.08195 30.64388 39017 ft 476 kts 177°
2026-05-05 08:02 38.01597 30.65253 38982 ft 476 kts 177°
2026-05-05 08:03 37.95009 30.66172 39035 ft 477 kts 176°
2026-05-05 08:03 37.88398 30.67060 39019 ft 478 kts 180°
2026-05-05 08:04 37.81803 30.67549 39015 ft 478 kts 180°
2026-05-05 08:04 37.75145 30.68087 39008 ft 478 kts 179°
2026-05-05 08:05 37.68519 30.68627 38994 ft 479 kts 180°
2026-05-05 08:05 37.61850 30.69168 38983 ft 479 kts 180°
2026-05-05 08:06 37.55242 30.69705 38968 ft 479 kts 180°
2026-05-05 08:06 37.48585 30.70243 38971 ft 478 kts 180°
2026-05-05 08:07 37.41946 30.70780 38975 ft 478 kts 180°
2026-05-05 08:07 37.35335 30.71314 38977 ft 477 kts 180°
2026-05-05 08:08 37.28719 30.71846 38959 ft 477 kts 180°
2026-05-05 08:08 37.22079 30.72380 38970 ft 477 kts 180°
2026-05-05 08:09 37.15449 30.72913 38974 ft 477 kts 180°
2026-05-05 08:09 37.08813 30.73444 38968 ft 477 kts 180°
2026-05-05 08:10 37.02228 30.73970 38989 ft 477 kts 180°
2026-05-05 08:10 36.95595 30.74500 38994 ft 477 kts 180°
2026-05-05 08:11 36.88959 30.75029 38976 ft 477 kts 180°
2026-05-05 08:11 36.82370 30.75553 38991 ft 474 kts 181°
2026-05-05 08:12 36.75824 30.76073 38989 ft 474 kts 181°
2026-05-05 08:12 36.69240 30.76595 38984 ft 474 kts 181°
2026-05-05 08:13 36.62662 30.77116 38979 ft 471 kts 181°
2026-05-05 08:13 36.56156 30.77630 38972 ft 470 kts 181°
2026-05-05 08:14 36.49612 30.78146 38977 ft 470 kts 181°
2026-05-05 08:14 36.43115 30.78658 38976 ft 470 kts 181°
2026-05-05 08:15 36.36566 30.79172 38979 ft 470 kts 181°
2026-05-05 08:15 36.30085 30.79681 38979 ft 470 kts 181°
2026-05-05 08:16 36.23545 30.80194 38963 ft 470 kts 181°
2026-05-05 08:16 36.17006 30.80705 38986 ft 470 kts 181°
2026-05-05 08:17 36.10525 30.81211 38989 ft 470 kts 181°
2026-05-05 08:17 36.03985 30.81721 38988 ft 470 kts 181°
2026-05-05 08:18 35.97445 30.82230 38998 ft 472 kts 181°
2026-05-05 08:18 35.90931 30.83381 38954 ft 481 kts 160°
2026-05-05 08:19 35.88058 30.85536 38972 ft 486 kts 139°
2026-05-05 08:19 35.85901 30.88670 38983 ft 490 kts 122°
2026-05-05 08:19 35.82910 30.96274 39000 ft 494 kts 115°
2026-05-05 08:20 35.79971 31.03996 38983 ft 499 kts 115°
2026-05-05 08:20 35.77078 31.11734 38987 ft 499 kts 115°
2026-05-05 08:21 35.74179 31.19493 38981 ft 499 kts 115°
2026-05-05 08:21 35.71294 31.27213 38754 ft 496 kts 115°
2026-05-05 08:22 35.69848 31.31068 38078 ft 495 kts 115°
2026-05-05 08:22 35.68402 31.34910 37446 ft 493 kts 114°
2026-05-05 08:22 35.66966 31.38738 36942 ft 489 kts 114°
2026-05-05 08:22 35.65564 31.42478 36491 ft 484 kts 114°
2026-05-05 08:23 35.64158 31.46214 35992 ft 481 kts 114°
2026-05-05 08:23 35.62750 31.49937 35473 ft 479 kts 113°
2026-05-05 08:23 35.61349 31.53644 34966 ft 477 kts 113°
2026-05-05 08:23 35.59949 31.57346 34451 ft 476 kts 112°
2026-05-05 08:24 35.58547 31.61040 33929 ft 475 kts 112°
2026-05-05 08:24 35.57164 31.64682 33343 ft 474 kts 112°
2026-05-05 08:24 35.55774 31.68344 32824 ft 471 kts 111°
2026-05-05 08:24 35.54398 31.71967 32326 ft 467 kts 112°
2026-05-05 08:25 35.53030 31.75569 31885 ft 463 kts 112°
2026-05-05 08:25 35.51666 31.79153 31418 ft 461 kts 112°
2026-05-05 08:25 35.50312 31.82709 30956 ft 459 kts 111°
2026-05-05 08:25 35.48957 31.86261 30476 ft 458 kts 111°
2026-05-05 08:26 35.47603 31.89802 29996 ft 456 kts 111°
2026-05-05 08:26 35.46273 31.93275 29479 ft 454 kts 111°
2026-05-05 08:26 35.44927 31.96788 29025 ft 451 kts 111°
2026-05-05 08:26 35.43602 32.00246 28591 ft 447 kts 111°
2026-05-05 08:27 35.42297 32.03647 28176 ft 444 kts 111°
2026-05-05 08:27 35.40969 32.07104 27736 ft 441 kts 111°
2026-05-05 08:27 35.39678 32.10468 27332 ft 439 kts 111°
2026-05-05 08:27 35.38377 32.13847 26895 ft 437 kts 111°
2026-05-05 08:28 35.37066 32.17240 26299 ft 440 kts 111°
2026-05-05 08:28 35.35759 32.20613 25562 ft 447 kts 111°
2026-05-05 08:28 35.34409 32.24088 24822 ft 454 kts 111°
2026-05-05 08:28 35.33045 32.27600 24121 ft 460 kts 111°
2026-05-05 08:29 35.31658 32.31165 23252 ft 468 kts 111°
2026-05-05 08:29 35.30242 32.34795 22303 ft 475 kts 111°
2026-05-05 08:29 35.28830 32.38420 21367 ft 475 kts 112°
2026-05-05 08:30 35.25995 32.45539 19895 ft 455 kts 119°
2026-05-05 08:30 35.24096 32.48598 19189 ft 447 kts 129°
2026-05-05 08:30 35.22157 32.51543 18453 ft 440 kts 128°
2026-05-05 08:30 35.20297 32.54455 17830 ft 429 kts 127°
2026-05-05 08:31 35.18512 32.57280 17194 ft 419 kts 127°
2026-05-05 08:31 35.16760 32.60073 16627 ft 409 kts 126°
2026-05-05 08:31 35.15045 32.62814 16047 ft 399 kts 127°
2026-05-05 08:31 35.13376 32.65479 15484 ft 389 kts 127°
2026-05-05 08:32 35.11764 32.68055 14947 ft 381 kts 127°
2026-05-05 08:32 35.10161 32.70613 14348 ft 376 kts 126°
2026-05-05 08:32 35.08574 32.73146 13727 ft 372 kts 126°
2026-05-05 08:32 35.07006 32.75644 12868 ft 370 kts 126°
2026-05-05 08:33 35.05468 32.78094 12082 ft 368 kts 127°
2026-05-05 08:33 35.03922 32.80556 11520 ft 359 kts 127°
2026-05-05 08:33 35.02432 32.82926 11238 ft 344 kts 127°
2026-05-05 08:33 35.00984 32.85227 11000 ft 339 kts 127°
2026-05-05 08:34 34.99573 32.87469 10688 ft 336 kts 127°
2026-05-05 08:34 34.98136 32.89750 10355 ft 333 kts 128°
2026-05-05 08:34 34.96748 32.91952 10021 ft 331 kts 128°
2026-05-05 08:34 34.95353 32.94165 9727 ft 327 kts 128°
2026-05-05 08:35 34.93973 32.96352 9377 ft 324 kts 128°
2026-05-05 08:35 34.92605 32.98519 9042 ft 320 kts 128°
2026-05-05 08:35 34.91260 33.00649 8773 ft 315 kts 128°
2026-05-05 08:35 34.89936 33.02744 8467 ft 311 kts 128°
2026-05-05 08:36 34.88621 33.04822 8172 ft 308 kts 128°
2026-05-05 08:36 34.87319 33.06881 7871 ft 306 kts 128°
2026-05-05 08:36 34.86025 33.08922 7573 ft 303 kts 128°
2026-05-05 08:36 34.84738 33.10956 7296 ft 302 kts 127°
2026-05-05 08:37 34.83456 33.12976 6993 ft 301 kts 128°
2026-05-05 08:37 34.82180 33.14988 6693 ft 298 kts 128°
2026-05-05 08:37 34.80914 33.16983 6408 ft 296 kts 128°
2026-05-05 08:37 34.79675 33.18935 6106 ft 294 kts 128°
2026-05-05 08:38 34.78424 33.20905 5787 ft 292 kts 128°
2026-05-05 08:38 34.77184 33.22853 5497 ft 290 kts 128°
2026-05-05 08:38 34.75952 33.24791 5214 ft 288 kts 128°
2026-05-05 08:38 34.74737 33.26700 4926 ft 286 kts 128°
2026-05-05 08:39 34.73532 33.28592 4643 ft 285 kts 128°
2026-05-05 08:39 34.72319 33.30494 4348 ft 284 kts 128°
2026-05-05 08:39 34.71120 33.32377 4194 ft 276 kts 128°
2026-05-05 08:39 34.69963 33.34189 4115 ft 265 kts 128°
2026-05-05 08:40 34.69086 33.36075 3945 ft 259 kts 104°
2026-05-05 08:40 34.69065 33.38205 3760 ft 249 kts 73°
2026-05-05 08:40 34.69835 33.40024 3626 ft 237 kts 50°
2026-05-05 08:40 34.70847 33.41571 3520 ft 230 kts 48°
2026-05-05 08:41 34.71819 33.43028 3423 ft 220 kts 49°
2026-05-05 08:41 34.72784 33.44458 3306 ft 217 kts 48°
2026-05-05 08:41 34.73799 33.45817 3136 ft 216 kts 43°
2026-05-05 08:41 34.74502 33.46669 2989 ft 216 kts 42°
2026-05-05 08:42 34.75566 33.47964 2697 ft 216 kts 43°
2026-05-05 08:42 34.76616 33.49250 2420 ft 211 kts 43°
2026-05-05 08:42 34.77632 33.50498 2220 ft 203 kts 43°
2026-05-05 08:42 34.78602 33.51690 2078 ft 193 kts 43°
2026-05-05 08:43 34.79497 33.52791 2006 ft 174 kts 41°
2026-05-05 08:43 34.80341 33.53821 1776 ft 170 kts 41°
2026-05-05 08:43 34.81155 33.54805 1535 ft 157 kts 42°
2026-05-05 08:43 34.81908 33.55723 1293 ft 151 kts 43°
2026-05-05 08:44 34.82642 33.56619 1045 ft 148 kts 43°
2026-05-05 08:44 34.83357 33.57495 878 ft 147 kts 43°
2026-05-05 08:44 34.84077 33.58384 722 ft 147 kts 43°
2026-05-05 08:44 34.84786 33.59265 530 ft 145 kts 42°
2026-05-05 08:45 34.85500 33.60120 326 ft 143 kts 41°
2026-05-05 08:45 34.86208 33.60972 120 ft 144 kts 42°
2026-05-05 08:45 34.86911 33.61827 26 ft 134 kts 43°
2026-05-05 08:45 34.87395 33.62416 19 ft 54 kts 45°
2026-05-05 08:46 34.87575 33.62637 21 ft 31 kts 44°
2026-05-05 08:46 34.87736 33.62833 24 ft 33 kts 45°
2026-05-05 08:46 34.87829 33.62923 23 ft 12 kts 355°
2026-05-05 08:46 34.87899 33.62859 24 ft 14 kts 317°
2026-05-05 08:47 34.87960 33.62763 24 ft 16 kts 268°
2026-05-05 08:47 34.87888 33.62659 24 ft 17 kts 226°
2026-05-05 08:47 34.87792 33.62542 21 ft 22 kts 225°
2026-05-05 08:47 34.87680 33.62405 22 ft 24 kts 225°
2026-05-05 08:48 34.87552 33.62249 19 ft 27 kts 225°
2026-05-05 08:48 34.87421 33.62088 25 ft 28 kts 225°
2026-05-05 08:48 34.87293 33.61931 28 ft 26 kts 224°
2026-05-05 08:48 34.87158 33.61766 24 ft 29 kts 225°
2026-05-05 08:49 34.87047 33.61630 23 ft 21 kts 225°
2026-05-05 08:49 34.86934 33.61492 21 ft 24 kts 225°
2026-05-05 08:49 34.86823 33.61356 20 ft 23 kts 225°
2026-05-05 08:49 34.86709 33.61217 24 ft 17 kts 225°
2026-05-05 08:50 34.86642 33.61131 24 ft 11 kts 237°
2026-05-05 08:50 34.86666 33.61049 23 ft 12 kts 315°
2026-05-05 08:50 34.86733 33.60968 25 ft 15 kts 315°
2026-05-05 08:50 34.86813 33.60872 23 ft 15 kts 315°
2026-05-05 08:51 34.86851 33.60837 23 ft 5 kts 353°
2026-05-05 08:51 34.86884 33.60866 24 ft 7 kts 45°
2026-05-05 08:51 34.86907 33.60893 23 ft 0 kts 45°